Back to catalog

LYNK TOWER 3

AliveCommunicationsSSO
NORAD 55046·PAYLOAD·🇺🇸 United States

Launched Jan 3, 2023 from Cape Canaveral Space Force Station

Loading…

Next Passes (next 24 hours)

TLE

FreshSource: Space-Track

Epoch: Sep 14, 2026, 04:51 UTC

1 55046U 23001AP  26257.20243208  .00008613  00000-0  23214-3 0  9992
2 55046  97.3103 317.0617 0008343 148.6400 211.5345 15.38025379205585

Track LYNK TOWER 3 in real time with AllMySat

Download on the App Store